• In Deutschland
  • Länderverzeichnis
  • Für 7 Tage
  • Wassertemperatur
  • Satellitenkarten
  • Wetterkarte
  • Widgets
  • user-avatar
    Anmelden

    Stündliche Wetter Sumgayit

    Heute, 18 Oktober, Mittwoch

    Zeit Temperatur Niederschläge Wind Luftdruck Luftfeuchtigkeit
    00:00 +13°C° 0 mm 3 m/S 743 mmHg 71%
    01:00 +13°C° 0 mm 4 m/S 743 mmHg 68%
    02:00 +13°C° 0 mm 4 m/S 744 mmHg 64%
    03:00 +12°C° 0 mm 3 m/S 743 mmHg 62%
    04:00 +12°C° 0 mm 3 m/S 744 mmHg 61%
    05:00 +12°C° 0 mm 3 m/S 744 mmHg 60%
    06:00 +12°C° 0 mm 3 m/S 744 mmHg 59%
    07:00 +13°C° 0 mm 3 m/S 745 mmHg 55%
    08:00 +14°C° 0 mm 3 m/S 745 mmHg 51%
    09:00 +16°C° 0 mm 2 m/S 746 mmHg 46%
    10:00 +17°C° 0 mm 2 m/S 746 mmHg 45%
    11:00 +18°C° 0 mm 2 m/S 746 mmHg 43%
    12:00 +19°C° 0 mm 2 m/S 746 mmHg 42%
    13:00 +19°C° 0 mm 3 m/S 746 mmHg 45%
    14:00 +18°C° 0 mm 3 m/S 746 mmHg 48%
    15:00 +18°C° 0 mm 4 m/S 746 mmHg 51%
    16:00 +17°C° 0 mm 4 m/S 746 mmHg 57%
    17:00 +17°C° 0 mm 4 m/S 747 mmHg 64%
    18:00 +15°C° 0 mm 4 m/S 747 mmHg 70%
    19:00 +16°C° 0 mm 3 m/S 747 mmHg 72%
    20:00 +14°C° 0 mm 3 m/S 747 mmHg 74%
    21:00 +15°C° 0 mm 2 m/S 747 mmHg 76%
    22:00 +15°C° 0 mm 2 m/S 747 mmHg 76%
    23:00 +15°C° 0 mm 2 m/S 747 mmHg 76%

    Morgen, 19 Oktober, Donnerstag

    Zeit Temperatur Niederschläge Wind Luftdruck Luftfeuchtigkeit
    00:00 +15°C° 0 mm 2 m/S 747 mmHg 76%
    01:00 +14°C° 0 mm 3 m/S 747 mmHg 75%
    02:00 +14°C° 0 mm 3 m/S 747 mmHg 75%
    03:00 +14°C° 0 mm 3 m/S 747 mmHg 75%
    04:00 +14°C° 0 mm 3 m/S 747 mmHg 76%
    05:00 +14°C° 0 mm 4 m/S 747 mmHg 77%
    06:00 +14°C° 0 mm 4 m/S 747 mmHg 79%
    07:00 +15°C° 0,1 mm 4 m/S 747 mmHg 79%
    08:00 +15°C° 0,1 mm 4 m/S 747 mmHg 78%
    09:00 +16°C° 0,1 mm 5 m/S 747 mmHg 78%
    10:00 +17°C° 0,1 mm 5 m/S 746 mmHg 76%
    11:00 +17°C° 0,1 mm 5 m/S 746 mmHg 74%
    12:00 +19°C° 0,1 mm 6 m/S 745 mmHg 72%
    13:00 +19°C° 0,1 mm 6 m/S 745 mmHg 70%
    14:00 +19°C° 0,1 mm 6 m/S 745 mmHg 68%
    15:00 +19°C° 0,1 mm 6 m/S 744 mmHg 67%
    16:00 +19°C° 0 mm 6 m/S 744 mmHg 69%
    17:00 +17°C° 0 mm 6 m/S 744 mmHg 72%
    18:00 +17°C° 0 mm 5 m/S 744 mmHg 75%
    19:00 +16°C° 0 mm 5 m/S 744 mmHg 76%
    20:00 +16°C° 0 mm 5 m/S 744 mmHg 77%
    21:00 +16°C° 0 mm 5 m/S 744 mmHg 78%
    22:00 +17°C° 0 mm 4 m/S 744 mmHg 79%
    23:00 +15°C° 0 mm 4 m/S 743 mmHg 80%

    übermorgen, 20 Oktober, Freitag

    Zeit Temperatur Niederschläge Wind Luftdruck Luftfeuchtigkeit
    00:00 +16°C° 0 mm 3 m/S 743 mmHg 81%
    01:00 +16°C° 0 mm 3 m/S 743 mmHg 81%
    02:00 +16°C° 0 mm 3 m/S 743 mmHg 81%
    03:00 +15°C° 0 mm 2 m/S 742 mmHg 82%
    04:00 +15°C° 0 mm 2 m/S 742 mmHg 81%
    05:00 +15°C° 0 mm 2 m/S 742 mmHg 80%
    06:00 +15°C° 0 mm 2 m/S 742 mmHg 79%
    07:00 +16°C° 0 mm 2 m/S 742 mmHg 73%
    08:00 +17°C° 0 mm 2 m/S 742 mmHg 67%
    09:00 +18°C° 0 mm 2 m/S 743 mmHg 60%
    10:00 +19°C° 0 mm 2 m/S 742 mmHg 56%
    11:00 +19°C° 0 mm 2 m/S 742 mmHg 51%
    12:00 +21°C° 0 mm 1 m/S 742 mmHg 47%
    13:00 +20°C° 0 mm 2 m/S 742 mmHg 46%
    14:00 +21°C° 0 mm 2 m/S 741 mmHg 45%
    15:00 +21°C° 0 mm 2 m/S 741 mmHg 44%
    16:00 +20°C° 0 mm 2 m/S 741 mmHg 49%
    17:00 +19°C° 0 mm 2 m/S 741 mmHg 53%
    18:00 +18°C° 0 mm 2 m/S 741 mmHg 58%
    19:00 +18°C° 0 mm 2 m/S 742 mmHg 62%
    20:00 +17°C° 0 mm 2 m/S 742 mmHg 65%
    21:00 +18°C° 0 mm 1 m/S 742 mmHg 69%
    22:00 +18°C° 0 mm 1 m/S 742 mmHg 70%
    23:00 +16°C° 0 mm 1 m/S 741 mmHg 71%

    21 Oktober, Samstag

    Zeit Temperatur Niederschläge Wind Luftdruck Luftfeuchtigkeit
    00:00 +16°C° 0 mm 1 m/S 741 mmHg 72%
    01:00 +16°C° 0 mm 1 m/S 741 mmHg 72%
    02:00 +16°C° 0 mm 1 m/S 741 mmHg 72%
    03:00 +15°C° 0 mm 1 m/S 741 mmHg 72%
    04:00 +15°C° 0 mm 1 m/S 741 mmHg 72%
    05:00 +15°C° 0 mm 1 m/S 741 mmHg 72%
    06:00 +15°C° 0 mm 1 m/S 741 mmHg 72%
    07:00 +16°C° 0 mm 1 m/S 741 mmHg 67%
    08:00 +18°C° 0 mm 1 m/S 741 mmHg 62%
    09:00 +18°C° 0 mm 2 m/S 741 mmHg 58%
    10:00 +19°C° 0 mm 2 m/S 741 mmHg 55%
    11:00 +20°C° 0 mm 2 m/S 741 mmHg 52%
    12:00 +21°C° 0 mm 3 m/S 740 mmHg 49%
    13:00 +21°C° 0 mm 3 m/S 740 mmHg 47%
    14:00 +21°C° 0 mm 3 m/S 740 mmHg 46%
    15:00 +21°C° 0 mm 3 m/S 739 mmHg 45%
    16:00 +21°C° 0 mm 3 m/S 740 mmHg 52%
    17:00 +20°C° 0 mm 2 m/S 740 mmHg 58%
    18:00 +19°C° 0 mm 2 m/S 740 mmHg 64%
    19:00 +18°C° 0 mm 2 m/S 740 mmHg 68%
    20:00 +18°C° 0 mm 2 m/S 740 mmHg 72%
    21:00 +17°C° 0 mm 2 m/S 740 mmHg 76%
    22:00 +18°C° 0 mm 1 m/S 740 mmHg 78%
    23:00 +18°C° 0 mm 1 m/S 740 mmHg 80%

    22 Oktober, Sonntag

    Zeit Temperatur Niederschläge Wind Luftdruck Luftfeuchtigkeit
    00:00 +16°C° 0 mm 1 m/S 740 mmHg 82%
    01:00 +16°C° 0 mm 1 m/S 740 mmHg 82%
    02:00 +15°C° 0 mm 0 m/S 740 mmHg 82%
    03:00 +15°C° 0 mm 0 m/S 740 mmHg 82%
    04:00 +16°C° 0 mm 1 m/S 740 mmHg 80%
    05:00 +16°C° 0 mm 1 m/S 741 mmHg 79%
    06:00 +15°C° 0 mm 2 m/S 741 mmHg 78%
    07:00 +16°C° 0 mm 3 m/S 741 mmHg 74%
    08:00 +17°C° 0 mm 4 m/S 742 mmHg 70%
    09:00 +17°C° 0 mm 6 m/S 742 mmHg 67%
    10:00 +17°C° 0 mm 7 m/S 742 mmHg 66%
    11:00 +17°C° 0 mm 8 m/S 743 mmHg 65%
    12:00 +17°C° 0 mm 8 m/S 743 mmHg 65%
    13:00 +16°C° 0,1 mm 9 m/S 743 mmHg 67%
    14:00 +16°C° 0,1 mm 10 m/S 743 mmHg 70%
    15:00 +14°C° 0,1 mm 11 m/S 743 mmHg 73%
    16:00 +13°C° 0 mm 11 m/S 744 mmHg 73%
    17:00 +12°C° 0 mm 11 m/S 744 mmHg 73%
    18:00 +12°C° 0 mm 11 m/S 745 mmHg 74%
    19:00 +11°C° 0 mm 10 m/S 745 mmHg 73%
    20:00 +11°C° 0 mm 10 m/S 746 mmHg 72%
    21:00 +11°C° 0 mm 9 m/S 746 mmHg 71%
    22:00 +11°C° 0 mm 8 m/S 746 mmHg 71%
    23:00 +11°C° 0 mm 8 m/S 746 mmHg 71%

    23 Oktober, Montag

    Zeit Temperatur Niederschläge Wind Luftdruck Luftfeuchtigkeit
    00:00 +10°C° 0 mm 7 m/S 746 mmHg 70%
    01:00 +10°C° 0 mm 6 m/S 746 mmHg 70%
    02:00 +10°C° 0 mm 6 m/S 746 mmHg 70%
    03:00 +10°C° 0 mm 5 m/S 746 mmHg 69%
    04:00 +10°C° 0 mm 5 m/S 746 mmHg 69%
    05:00 +11°C° 0 mm 4 m/S 746 mmHg 69%
    06:00 +11°C° 0 mm 4 m/S 746 mmHg 69%
    07:00 +12°C° 0 mm 4 m/S 746 mmHg 68%
    08:00 +12°C° 0 mm 4 m/S 746 mmHg 67%
    09:00 +13°C° 0 mm 4 m/S 746 mmHg 66%
    10:00 +13°C° 0 mm 4 m/S 745 mmHg 65%
    11:00 +14°C° 0 mm 5 m/S 745 mmHg 63%
    12:00 +14°C° 0 mm 5 m/S 744 mmHg 62%
    13:00 +15°C° 0 mm 5 m/S 744 mmHg 61%
    14:00 +15°C° 0 mm 5 m/S 743 mmHg 61%
    15:00 +15°C° 0 mm 5 m/S 743 mmHg 60%
    16:00 +15°C° 0 mm 4 m/S 743 mmHg 63%
    17:00 +14°C° 0 mm 4 m/S 743 mmHg 65%
    18:00 +14°C° 0 mm 3 m/S 743 mmHg 67%
    19:00 +14°C° 0 mm 3 m/S 743 mmHg 68%
    20:00 +14°C° 0 mm 3 m/S 743 mmHg 69%
    21:00 +15°C° 0 mm 2 m/S 743 mmHg 70%
    22:00 +15°C° 0 mm 2 m/S 743 mmHg 70%
    23:00 +15°C° 0 mm 2 m/S 743 mmHg 69%
    Mehr zeigen